Location: Huppendorf
(49.9333°N, 11.1500°E)
Time: 08:21:29
(UTC+00:00)

STARLINK-1056 - Pass Details

Date: 27 February 2020
Orbit: 549 x 551 km, 53.0° (Epoch: 01 April)

Event Time Altitude Azimuth Distance (km) Brightness Sun altitude
Rises 18:58:15 0° 247° (WSW) 2,712 8.0 -20.8°
Reaches altitude 10° 19:00:28 10° 247° (WSW) 1,821 7.0 -21.1°
Maximum altitude 19:04:37 89° 330° (NNW) 556 3.5 -21.8°
Enters shadow 19:04:58 75° 65° (ENE) 574 3.5 -21.8°
